TimeCST,TemperatureF,Dew PointF,Humidity,Sea Level PressureIn,VisibilityMPH,Wind Direction,Wind SpeedMPH,Gust SpeedMPH,PrecipitationIn,Events,Conditions,WindDirDegrees,DateUTC
12:51 AM,51.8,42.8,71,30.05,10.0,South,8.1,-,N/A,,Mostly Cloudy,170,2013-03-05 06:51:00
12:53 AM,52.0,43.0,71,30.02,10.0,South,5.8,-,N/A,,Mostly Cloudy,170,2013-03-05 06:53:00
1:53 AM,53.1,45.0,74,30.01,10.0,SSE,3.5,-,N/A,,Overcast,160,2013-03-05 07:53:00
2:53 AM,53.1,46.0,77,30.02,10.0,West,3.5,-,N/A,,Overcast,280,2013-03-05 08:53:00
3:53 AM,52.0,46.9,83,30.01,10.0,ESE,4.6,-,0.00,,Overcast,110,2013-03-05 09:53:00
4:53 AM,53.1,46.9,80,30.02,10.0,SE,3.5,-,N/A,,Overcast,130,2013-03-05 10:53:00
5:53 AM,54.0,48.9,83,30.02,10.0,Calm,Calm,-,0.00,,Overcast,0,2013-03-05 11:53:00
6:05 AM,53.6,48.2,82,30.06,10.0,SE,3.5,-,0.00,Rain,Light Rain,130,2013-03-05 12:05:00
6:48 AM,53.6,50.0,88,30.06,10.0,SE,4.6,-,0.00,,Overcast,130,2013-03-05 12:48:00
6:53 AM,54.0,50.0,86,30.03,10.0,SE,4.6,-,0.00,,Overcast,140,2013-03-05 12:53:00
7:18 AM,55.4,51.8,88,30.06,10.0,SSE,5.8,-,N/A,,Mostly Cloudy,150,2013-03-05 13:18:00
7:40 AM,57.2,51.8,82,30.06,10.0,SE,4.6,-,N/A,,Overcast,140,2013-03-05 13:40:00
7:53 AM,57.0,52.0,83,30.02,10.0,SSE,5.8,-,N/A,,Overcast,150,2013-03-05 13:53:00
8:07 AM,57.2,51.8,82,30.04,10.0,SE,6.9,-,N/A,,Mostly Cloudy,130,2013-03-05 14:07:00
8:26 AM,57.2,53.6,88,30.04,10.0,SSE,6.9,-,N/A,,Mostly Cloudy,150,2013-03-05 14:26:00
8:33 AM,57.2,53.6,88,30.04,10.0,SSE,5.8,-,N/A,,Overcast,160,2013-03-05 14:33:00
8:53 AM,57.9,53.1,84,30.02,10.0,Variable,3.5,-,N/A,,Overcast,0,2013-03-05 14:53:00
9:22 AM,60.8,55.4,82,30.06,10.0,Variable,4.6,-,N/A,,Overcast,0,2013-03-05 15:22:00
9:38 AM,62.6,55.4,77,30.06,10.0,SSW,8.1,-,N/A,,Overcast,200,2013-03-05 15:38:00
9:53 AM,62.1,55.9,80,30.03,10.0,Variable,4.6,-,N/A,,Overcast,0,2013-03-05 15:53:00
10:53 AM,66.9,57.9,73,29.98,10.0,Variable,6.9,16.1,N/A,,Mostly Cloudy,0,2013-03-05 16:53:00
11:15 AM,68.0,57.2,68,30.01,10.0,SW,15.0,24.2,N/A,,Overcast,220,2013-03-05 17:15:00
11:53 AM,73.0,57.9,59,29.65,10.0,West,10.4,19.6,0.00,,Mostly Cloudy,260,2013-03-05 17:53:00
12:53 PM,73.9,55.0,52,29.61,10.0,WSW,15.0,29.9,N/A,,Mostly Cloudy,240,2013-03-05 18:53:00
1:53 PM,73.9,53.1,48,29.57,10.0,SW,12.7,27.6,N/A,,Overcast,220,2013-03-05 19:53:00
2:53 PM,73.0,54.0,51,29.56,10.0,SW,13.8,25.3,N/A,,Overcast,220,2013-03-05 20:53:00
3:53 PM,73.0,55.9,55,29.53,10.0,SW,16.1,31.1,N/A,,Partly Cloudy,230,2013-03-05 21:53:00
4:53 PM,70.0,57.0,63,29.54,10.0,SW,11.5,21.9,N/A,,Overcast,230,2013-03-05 22:53:00
5:33 PM,62.6,57.2,82,29.93,1.8,WNW,13.8,35.7,0.06,Rain,Heavy Rain,300,2013-03-05 23:33:00
5:39 PM,62.6,57.2,82,29.93,3.0,WNW,13.8,24.2,0.07,Rain,Light Rain,300,2013-03-05 23:39:00
5:53 PM,61.0,57.9,90,29.90,10.0,WNW,8.1,-,0.07,,Overcast,300,2013-03-05 23:53:00
6:53 PM,59.0,54.0,83,29.93,10.0,WNW,9.2,-,N/A,,Clear,300,2013-03-06 00:53:00
7:53 PM,54.0,44.1,69,29.97,10.0,WNW,15.0,31.1,N/A,,Partly Cloudy,300,2013-03-06 01:53:00
8:53 PM,50.0,39.0,66,30.02,10.0,NW,15.0,25.3,N/A,,Clear,320,2013-03-06 02:53:00
9:53 PM,46.9,36.0,66,30.05,10.0,NW,12.7,25.3,N/A,,Clear,310,2013-03-06 03:53:00
10:53 PM,45.0,36.0,71,30.05,10.0,NW,5.8,-,N/A,,Clear,310,2013-03-06 04:53:00
11:53 PM,43.0,36.0,76,30.04,10.0,Calm,Calm,-,N/A,,Clear,0,2013-03-06 05:53:00